Probability
0 0 0 0 0 0 0 0 0 0 0 0 0 0 0 0 0 0 0 0 0 0 0 0 0 0 0 0 0 0 0 0 0 0 0 0 0 0 0 0 0 0 0
0 0 0 0 0 0 0 0 0 0 0 0 0 0 0 0 0 0 0 0 0 0 0 0 0 0 0 0 0 0 0 0 0 0 0 0 0 0 0 0 0 0 0
0 0 0 0 0 0 0 0 0 0 0 0 0 0 0 0 0 0 0 0 0 0 0 0 0 0 0 0 0 0 0 0 0 0 0 0 0 0 0 0 0 0 0
0 0 0 0 0 0 0 0 0 0 0 0 0 0 0 0 0 0 0 0 0 0 0 0 0 0 0 0 0 0 0 0 0 0 0 0 0 0 0 0 0 0 0
0 0 0 0 0 0 0 0 0 0 0 0 0 0 0 0 0 0 0 0 0 0 0 0 0 0 0 0 0 0 0 0 0 0 0 0 0 0 0 0 0 0 0
0 0 0 0 0 0 0 0 0 0 0 0 0 0 0 0 0 0 0 0 0 0 0 0 0 0 0 0 0 0 0 0 0 0 0 0 0 0 0 0 0 0 0
0 0 0 0 0 0 0 0 0 0 0 0 0 0 0 0 0 0 0 0 0 0 0 0 0 0 0 0 0 0 0 0 0 0 0 0 0 0 0 0 0 0 0
0 0 0 0 0 0 0 0 0 0 0 0 0 0 0 0 0 0 0 0 0 0 0 0 0 0 0 0 0 0 0 0 0 0 0 0 0 0 0 0 0 0 0
0 0 0 0 0 0 0 0 0 0 0 0 0 0 0 0 0 0 0 0 0 0 0 0 0 0 0 0 0 0 0 0 0 0 0 0 0 0 0 0 0 0 0
0 0 0 0 0 0 0 0 0 0 0 0 0 0 0 0 0 0 0 0 0 0 0 0 0 0 0 0 0 0 0 0 0 0 0 0 0 0 0 0 0 0 0
0 0 0 0 0 0 0 0 0 0 0 0 0 0 0 0 0 0 0 0 0 0 0 0 0 0 0 0 0 0 0 0 0 0 0 0 0 0 0 0 0 0 0
0 0 0 0 0 0 0 0 0 0 0 0 0 0 0 0 0 0 0 0 0 0 0 0 0 0 0 0 0 0 0 0 0 0 0 0 0 0 0 0 0 0 0
0 0 0 0 0 0 0 0 0 0 0 0 0 0 0 0 0 0 0 0 0 0 0 0 0 0 0 0 0 0 0 0 0 0 0 0 0 0 0 0 0 0 0
0 0 0 0 0 0 0 0 0 0 0 0 0 0 0 0 0 0 0 0 0 0 0 0 0 0 0 0 0 0 0 0 0 0 0 0 0 0 0 0 0 0 0
0 0 0 0 0 0 0 0 0 0 0 0 0 0 0 0 0 0 0 0 0 0 0 0 0 0 0 0 0 0 0 0 0 0 0 0 0 0 0 0 0 0 0
0 0 0 0 0 0 0 0 0 0 0 0 0 0 0 0 0 0 0 0 0 0 0 0 0 0 0 0 0 0 0 0 0 0 0 0 0 0 0 0 0 0 0
0 0 0 0 0 0 0 0 0 0 0 0 0 0 0 0 0 0 0 0 0 0 0 0 0 0 0 0 0 0 0 0 0 0 0 0 0 0 0 0 0 0 0
0 0 0 0 0 0 0 0 0 0 0 0 0 0 0 0 0 0 0 0 0 0 0 0 0 0 0 0 0 0 0 0 0 0 0 0 0 0 0 0 0 0 0
0 0 0 0 0 0 0 0 0 0 0 0 0 0 0 0 0 0 0 0 0 0 0 0 0 0 0 0 0 0 0 0 0 0 0 0 0 0 0 0 0 0 0
0 0 0 0 0 0 0 0 0 0 0 0 0 0 0 0 0 0 0 0 0 0 0 0 0 0 0 0 0 0 0 0 0 0 0 0 0 0 0 0 0 0 0
0 0 0 0 0 0 0 0 0 0 0 0 0 0 0 0 0 0 0 0 0 0 0 0 0 0 0 0 0 0 0 0 0 0 0 0 0 0 0 0 0 0 0
0 0 0 0 0 0 0 0 0 0 0 0 0 0 0 0 0 0 0 0 0 0 0 0 0 0 0 0 0 0 0 0 0 0 0 0 0 0 0 0 0 0 0
0 0 0 0 0 0 0 0 0 0 0 0 0 0 0 0 0 0 0 0 0 0 0 0 0 0 0 0 0 0 0 0 0 0 0 0 0 0 0 0 0 0 0
0 0 0 0 0 0 0 0 0 0 0 0 0 0 0 0 0 0 0 0 0 0 0 0 0 0 0 0 0 0 0 0 0 0 0 0 0 0 0 0 0 0 0
0 0 0 0 0 0 0 0 0 0 0 0 0 0 0 0 0 0 0 0 0 0 0 0 0 0 0 0 0 0 0 0 0 0 0 0 0 0 0 0 0 0 0
0 0 0 0 0 0 0 0 0 0 0 0 0 0 0 0 0 0 0 0 0 0 0 0 0 0 0 0 0 0 0 0 0 0 0 0 0 0 0 0 0 0 0
Height
5672 5680 5686 5693 5699 5704 5710 5715 5719 5722 5725 5728 5730 5732 5734 5735 5736 5737 5737 5737 5737 5736 5735 5733 5731 5729 5726 5723 5720 5716 5713 5708 5704 5700 5695 5690 5684 5678 5672 5666 5659 5651 5643
5662 5670 5677 5683 5689 5695 5701 5706 5710 5714 5717 5719 5722 5724 5725 5727 5728 5729 5729 5729 5729 5728 5726 5725 5723 5720 5718 5715 5711 5708 5704 5700 5696 5692 5686 5681 5675 5669 5663 5656 5649 5641 5632
5652 5659 5666 5673 5680 5686 5692 5697 5701 5705 5708 5711 5713 5715 5717 5718 5719 5720 5721 5721 5720 5719 5718 5717 5715 5712 5710 5706 5703 5699 5695 5691 5687 5683 5678 5672 5666 5660 5653 5646 5638 5629 5620
5642 5649 5657 5664 5671 5677 5682 5687 5692 5696 5699 5702 5705 5707 5708 5710 5711 5712 5712 5712 5712 5711 5710 5708 5706 5704 5701 5698 5695 5691 5687 5683 5678 5673 5668 5663 5657 5650 5643 5635 5627 5617 5608
5632 5640 5648 5655 5661 5666 5672 5677 5682 5686 5690 5693 5696 5698 5699 5701 5702 5703 5704 5704 5703 5702 5701 5700 5698 5695 5693 5690 5686 5683 5679 5674 5669 5665 5659 5653 5647 5640 5632 5624 5615 5606 5595
5622 5631 5638 5644 5651 5657 5662 5668 5672 5676 5680 5684 5687 5689 5691 5692 5694 5695 5695 5695 5694 5694 5693 5691 5689 5687 5684 5681 5678 5674 5670 5666 5661 5656 5650 5644 5637 5629 5621 5612 5603 5595 5585
5612 5620 5627 5634 5641 5647 5653 5658 5663 5667 5671 5674 5677 5680 5682 5684 5685 5686 5686 5686 5686 5685 5684 5683 5681 5678 5676 5672 5669 5665 5661 5656 5652 5647 5640 5633 5626 5619 5611 5601 5590 5580 5570
5602 5610 5617 5624 5631 5637 5642 5648 5653 5657 5661 5665 5668 5671 5673 5675 5676 5677 5678 5678 5678 5677 5676 5674 5672 5670 5667 5664 5660 5656 5652 5647 5642 5637 5631 5623 5615 5607 5598 5588 5578 5568 5557
5592 5600 5607 5614 5621 5627 5633 5638 5643 5648 5652 5655 5659 5661 5664 5666 5668 5669 5669 5670 5669 5669 5668 5666 5664 5662 5659 5655 5652 5648 5644 5638 5632 5626 5620 5612 5604 5595 5585 5576 5566 5556 5546
5583 5590 5598 5605 5611 5618 5623 5629 5634 5638 5642 5646 5649 5652 5655 5657 5659 5660 5661 5661 5661 5660 5659 5658 5656 5653 5650 5647 5643 5639 5635 5629 5623 5617 5609 5601 5592 5583 5573 5564 5554 5544 5535
5574 5581 5588 5595 5602 5608 5614 5619 5624 5629 5633 5637 5640 5644 5647 5649 5651 5652 5653 5653 5653 5652 5651 5649 5647 5645 5642 5638 5634 5630 5625 5620 5614 5607 5599 5591 5581 5572 5562 5552 5543 5533 5523
5566 5573 5580 5587 5593 5599 5605 5610 5615 5620 5624 5628 5632 5635 5638 5641 5643 5644 5645 5645 5645 5644 5643 5641 5639 5636 5633 5630 5626 5622 5616 5611 5604 5597 5589 5580 5571 5561 5551 5541 5532 5523 5513
5558 5565 5572 5579 5585 5591 5597 5602 5607 5611 5616 5620 5624 5627 5631 5633 5635 5636 5636 5637 5636 5636 5635 5633 5631 5628 5625 5621 5617 5613 5607 5601 5594 5587 5578 5570 5560 5551 5541 5531 5521 5512 5502
5551 5559 5565 5572 5577 5584 5589 5594 5599 5604 5609 5613 5617 5620 5623 5625 5627 5628 5628 5629 5628 5628 5626 5625 5622 5620 5617 5613 5609 5604 5598 5592 5585 5577 5568 5559 5550 5541 5531 5521 5512 5502 5492
5545 5552 5559 5565 5571 5577 5582 5588 5593 5598 5602 5606 5610 5613 5616 5618 5619 5621 5621 5621 5621 5620 5618 5617 5615 5612 5609 5605 5600 5595 5589 5582 5575 5567 5559 5550 5540 5531 5521 5512 5503 5493 5483
5539 5546 5553 5559 5565 5571 5576 5582 5586 5591 5595 5599 5603 5606 5608 5610 5612 5613 5613 5613 5613 5612 5611 5609 5607 5604 5601 5596 5592 5586 5580 5573 5566 5558 5549 5540 5531 5522 5512 5503 5494 5484 5474
5534 5541 5547 5554 5560 5565 5571 5576 5581 5585 5588 5592 5596 5599 5601 5603 5604 5605 5605 5605 5605 5604 5603 5601 5599 5596 5592 5588 5583 5578 5571 5564 5557 5549 5540 5532 5522 5513 5504 5494 5484 5474 5465
5529 5536 5542 5548 5554 5560 5565 5570 5575 5579 5583 5586 5589 5592 5594 5596 5597 5598 5599 5599 5598 5597 5596 5594 5591 5588 5584 5580 5575 5569 5563 5556 5549 5541 5532 5523 5514 5504 5495 5486 5476 5466 5456
5524 5531 5537 5543 5549 5554 5559 5564 5569 5573 5577 5580 5583 5586 5587 5589 5590 5591 5592 5592 5591 5590 5588 5586 5583 5580 5576 5572 5567 5561 5555 5548 5540 5532 5523 5514 5505 5496 5487 5477 5467 5458 5449
5519 5526 5532 5538 5544 5549 5554 5559 5563 5567 5571 5574 5577 5580 5581 5583 5584 5585 5585 5585 5584 5583 5581 5579 5576 5573 5569 5564 5559 5553 5547 5540 5532 5524 5515 5506 5497 5488 5479 5469 5460 5451 5442
5515 5521 5527 5533 5539 5544 5549 5553 5558 5561 5565 5568 5571 5573 5576 5577 5578 5578 5579 5578 5577 5576 5574 5571 5569 5565 5561 5557 5551 5546 5539 5532 5524 5516 5507 5498 5489 5480 5471 5462 5453 5445 5437
5510 5516 5522 5528 5533 5539 5544 5548 5552 5556 5559 5562 5565 5567 5569 5571 5571 5572 5572 5572 5571 5569 5567 5565 5562 5558 5554 5549 5544 5538 5531 5524 5516 5508 5499 5490 5481 5473 5464 5456 5448 5440 5432
5505 5511 5517 5523 5528 5533 5538 5543 5547 5550 5554 5557 5559 5562 5563 5565 5565 5566 5566 5565 5564 5562 5560 5558 5555 5551 5547 5542 5537 5530 5523 5516 5508 5500 5491 5482 5474 5466 5458 5450 5442 5434 5427
5501 5507 5512 5518 5524 5529 5534 5538 5542 5545 5548 5551 5554 5556 5558 5559 5560 5560 5560 5559 5558 5556 5554 5551 5548 5544 5540 5535 5529 5523 5515 5508 5500 5492 5483 5475 5467 5459 5452 5444 5436 5429 5422
5496 5502 5508 5514 5519 5524 5529 5533 5536 5540 5543 5546 5548 5550 5552 5553 5554 5554 5553 5553 5551 5550 5547 5544 5541 5537 5533 5527 5521 5515 5508 5500 5492 5484 5476 5468 5461 5453 5445 5438 5431 5424 5417
5492 5497 5503 5509 5514 5519 5523 5528 5531 5535 5538 5541 5543 5545 5546 5547 5548 5548 5548 5547 5545 5543 5541 5538 5534 5530 5525 5520 5514 5507 5500 5493 5485 5477 5469 5461 5454 5447 5439 5433 5426 5419 5413
Wind_Speed
50 48 46 44 43 42 41 39 38 36 36 35 35 35 36 36 36 36 36 36 36 36 36 36 36 37 37 38 38 39 39 39 40 40 42 42 43 45 47 49 51 53 55
51 50 48 46 45 43 41 40 39 38 37 37 36 36 36 36 36 36 36 36 36 36 36 37 37 37 37 37 38 39 39 40 41 41 42 43 44 46 48 50 52 55 57
51 50 49 47 45 44 42 41 40 39 38 37 37 37 36 36 36 36 36 36 36 36 37 36 36 37 37 37 38 38 39 41 41 42 42 44 45 47 49 51 54 57 60
52 51 50 48 46 45 44 43 42 42 40 39 38 38 37 37 37 36 36 36 36 36 37 36 36 36 37 38 37 37 39 40 41 42 43 45 47 49 51 53 56 59 61
51 51 49 47 46 46 46 44 44 43 41 40 40 40 39 38 37 36 37 36 36 37 36 35 35 36 36 37 37 37 39 40 41 43 44 46 48 50 52 55 57 60 61
51 50 49 47 46 46 46 45 44 43 42 42 41 40 39 38 37 37 36 37 36 36 35 35 35 35 36 37 37 37 38 40 42 43 45 47 49 52 54 57 58 60 61
52 51 50 48 47 46 46 45 44 44 43 41 40 39 39 38 37 36 36 35 35 35 34 35 35 36 36 36 36 37 39 41 42 44 46 48 51 53 56 58 59 61 61
51 50 50 49 47 46 46 45 43 43 42 41 40 39 39 38 37 36 35 35 34 34 34 34 34 35 36 36 37 38 40 42 43 45 48 50 52 55 57 59 60 60 60
50 50 49 49 48 47 46 45 43 42 41 40 39 39 38 37 36 35 34 34 34 34 34 34 34 35 35 36 37 39 41 42 44 46 49 51 54 56 58 58 58 58 58
48 48 47 47 47 45 43 43 42 41 40 39 38 37 36 35 34 33 33 33 33 34 33 33 33 34 35 36 38 39 41 43 45 47 50 52 54 57 58 58 57 57 58
45 45 44 44 43 43 42 41 41 41 40 39 37 36 35 34 33 32 32 33 32 32 32 33 34 34 35 36 37 39 41 43 45 47 50 52 55 56 57 56 55 56 57
43 43 43 42 42 41 41 40 39 39 38 37 35 35 34 33 32 31 31 31 32 32 32 33 33 34 35 36 37 39 42 43 45 48 50 53 55 55 55 55 55 56 56
42 41 41 41 40 39 39 39 38 37 36 35 34 33 32 31 31 31 31 31 31 32 32 32 33 34 35 36 37 39 41 44 46 48 51 53 54 53 54 54 55 55 55
40 39 39 39 38 38 37 36 35 34 34 33 32 31 30 30 30 30 30 30 31 31 31 31 32 34 35 36 38 39 41 44 46 49 50 52 52 53 53 53 54 54 55
38 37 37 36 36 35 35 34 33 31 31 31 30 30 29 29 29 29 29 29 30 30 31 31 33 33 35 36 37 39 42 44 46 48 50 51 52 52 52 52 52 53 54
38 37 35 35 35 33 32 31 31 30 29 29 28 28 27 27 27 27 28 28 29 30 30 31 31 33 34 35 37 40 42 44 46 48 49 50 51 51 50 51 52 53 53
36 36 35 34 33 32 31 30 29 28 28 27 26 26 26 26 26 26 27 28 28 28 29 29 30 32 33 35 37 39 41 43 45 47 48 50 50 50 50 51 52 53 52
36 35 34 33 32 31 29 29 28 27 26 26 26 25 25 25 25 26 26 26 26 27 27 28 30 31 33 34 36 38 40 42 45 47 48 49 50 50 50 51 51 51 50
36 35 34 32 32 31 29 28 27 26 26 26 25 25 24 24 24 24 24 25 25 25 26 28 29 30 32 34 35 38 40 43 45 47 48 49 49 49 49 50 50 49 47
35 35 34 33 32 30 29 28 26 26 25 25 25 23 23 23 23 23 23 23 24 25 26 27 28 30 31 33 35 38 41 43 46 47 48 48 48 48 48 49 48 46 44
34 34 33 33 31 30 29 27 26 25 25 25 24 23 22 21 21 21 22 22 23 24 25 26 28 29 31 33 36 38 41 44 46 47 48 48 48 47 47 47 45 43 41
34 34 32 31 30 29 28 27 26 25 24 24 23 22 21 20 20 21 21 21 22 23 24 26 27 29 31 34 36 39 42 44 46 47 48 47 46 46 45 44 43 42 40
33 33 32 31 29 28 27 26 25 24 23 22 21 20 20 20 20 20 20 20 21 23 24 25 28 30 32 34 37 40 42 44 46 47 47 46 45 44 43 43 42 41 39
32 31 30 29 29 27 26 25 24 23 22 21 20 19 19 19 19 19 20 20 21 23 24 26 28 30 32 35 38 40 42 44 46 47 46 44 43 43 42 42 40 38 36
31 31 30 29 28 27 26 26 24 23 22 21 20 19 19 19 19 19 19 20 22 23 24 26 28 31 33 36 38 40 42 44 45 45 44 43 43 42 41 39 38 36 35
31 30 30 30 28 27 26 25 24 22 21 20 19 19 19 18 18 19 19 21 22 24 25 27 29 31 33 36 38 41 42 44 44 44 43 42 42 40 39 37 36 35 34
Wind_Direction
224 225 226 227 230 233 235 237 240 242 245 249 252 254 256 258 262 265 268 270 274 277 281 284 286 288 291 293 295 297 297 299 301 302 303 305 305 306 307 308 309 310 311
224 226 226 227 228 231 234 238 240 243 247 250 252 254 256 258 261 264 266 270 274 276 280 283 285 287 290 292 294 295 296 298 300 301 303 305 306 307 307 308 309 310 310
224 225 226 227 229 231 233 236 240 243 247 249 252 254 256 259 261 263 267 270 273 276 279 282 284 287 289 292 294 295 296 298 300 301 304 305 306 307 308 309 309 310 311
223 225 227 228 230 232 233 235 239 243 246 248 251 254 256 259 261 264 266 270 274 276 279 281 283 286 289 291 293 294 295 297 300 302 303 305 306 308 308 309 310 311 312
223 225 227 228 230 231 233 235 238 241 244 247 250 252 256 259 261 264 267 270 273 276 278 280 283 286 288 290 292 294 295 297 300 302 304 306 307 308 309 310 311 312 313
222 224 226 227 229 231 234 236 238 240 243 246 248 251 254 257 260 263 267 270 272 275 278 281 283 286 288 290 291 293 294 298 300 302 305 306 307 309 310 311 312 313 313
221 223 224 227 229 230 233 236 238 240 243 244 247 250 253 255 258 261 266 269 271 274 278 281 283 285 288 290 291 292 295 299 301 303 305 307 308 310 311 312 313 314 314
220 222 224 225 228 230 232 234 238 240 242 244 246 249 251 254 257 261 264 268 271 274 277 280 283 286 288 288 290 294 297 300 303 304 306 309 310 312 313 313 314 315 315
220 221 223 225 227 229 231 233 235 238 240 242 245 248 251 254 256 260 264 267 270 274 277 280 283 286 288 289 292 296 299 302 304 306 308 311 312 313 314 315 315 316 316
218 220 223 226 227 228 230 232 234 236 239 241 244 247 250 253 256 260 263 266 270 273 277 280 283 286 288 291 294 298 301 303 306 308 310 312 314 315 315 315 316 316 317
217 218 221 224 226 228 229 231 233 235 238 241 243 245 248 252 256 258 262 266 270 273 276 280 283 286 289 292 296 300 303 305 307 309 312 313 315 315 316 316 317 318 318
216 217 219 221 223 226 228 230 233 235 237 239 241 245 248 251 254 258 262 266 269 272 276 281 284 287 291 295 298 301 304 307 309 311 313 314 316 317 317 317 318 319 320
214 215 217 219 221 224 227 229 232 233 235 238 241 243 246 250 254 258 260 264 268 273 277 281 285 289 293 297 300 303 306 308 311 313 314 316 318 318 318 318 319 320 321
212 214 215 218 221 223 225 226 228 232 233 235 239 243 246 249 254 257 260 264 269 274 278 282 287 291 294 298 301 304 307 310 313 314 316 318 319 318 319 320 321 322 322
210 211 214 216 217 219 221 223 225 228 231 234 238 242 245 250 254 258 262 266 270 275 280 284 288 292 296 300 303 306 309 312 315 317 318 319 320 320 321 322 322 323 322
207 209 211 212 214 216 218 221 224 228 230 233 237 241 245 250 255 259 263 267 272 276 281 286 290 294 298 302 305 308 311 314 317 319 320 321 322 322 322 323 323 323 323
206 207 209 211 213 215 217 220 223 226 229 232 236 242 247 252 256 261 265 269 274 278 283 288 293 297 300 303 307 310 313 316 319 321 321 322 323 323 323 323 323 324 324
205 206 208 210 212 214 217 219 221 225 230 233 237 244 249 253 257 262 267 272 276 281 285 290 295 299 302 306 309 313 316 319 321 322 323 323 324 324 324 324 325 326 326
204 206 207 209 211 213 216 219 222 225 229 234 238 244 250 253 258 264 269 274 278 283 288 293 297 301 305 308 311 315 318 320 322 324 324 324 325 325 325 326 327 327 328
205 206 206 208 211 214 217 220 222 226 231 234 239 245 250 255 260 266 271 274 279 285 291 295 299 303 307 310 313 317 320 322 324 325 325 325 325 325 326 327 328 328 329
205 205 205 208 211 214 217 219 222 227 231 234 239 245 251 256 262 268 272 276 282 288 292 297 302 305 309 312 315 318 321 323 325 326 325 326 326 326 327 328 329 329 330
205 206 207 210 212 214 218 219 222 226 231 235 240 245 251 257 263 268 274 279 285 290 295 300 304 307 311 314 317 320 322 324 325 326 327 326 326 327 328 329 330 330 330
205 207 209 211 213 216 218 219 223 227 231 235 241 246 252 258 263 270 275 281 288 293 297 302 306 309 312 315 319 321 323 325 326 328 328 327 327 328 328 329 330 330 330
207 207 209 212 213 216 218 221 224 227 230 235 240 246 252 258 264 270 276 284 291 295 299 304 307 311 314 317 320 322 324 325 327 328 328 328 328 328 328 329 330 330 331
206 208 210 211 214 217 217 220 224 227 232 236 242 247 253 259 266 273 280 287 293 297 301 305 309 312 315 318 321 323 325 326 328 329 328 328 328 328 329 330 330 330 331
209 209 210 212 214 215 217 220 223 226 231 237 243 248 254 261 268 276 283 289 295 299 302 306 310 314 317 320 322 324 326 327 328 329 329 329 329 329 329 330 330 330 331